Location: Brown Observing Site
(43.4354°N, 116.3366°W)
Time: 14:41:59
(UTC-06:00)

Envisat - Pass Details

Date: 22 March 2019
Orbit: 764 x 766 km, 98.1° (Epoch: 19 October)

Event Time Altitude Azimuth Distance (km) Brightness Sun altitude
Rises 20:57:32 0° 187° (S) 3,213 6.2 -11.2°
Reaches altitude 10° 20:59:58 10° 195° (SSW) 2,292 5.5 -11.6°
Maximum altitude 21:04:40 38° 263° (W) 1,154 4.6 -12.4°
Drops below altitude 10° 21:09:24 10° 331° (NNW) 2,309 6.1 -13.3°
Sets 21:11:52 0° 340° (NNW) 3,240 6.8 -13.7°
